Terminal Aerodrome Forecast
Issued by NWS New Orleans/Baton Rouge, LA

Home | Current Version | Previous Version | Text Only | Print | Product List | Glossary On
Versions: 1 2 3 4 5 6 7 8 9 10 11 12 13 14 15 16 17 18 19 20 21 22 23
000
FTUS44 KLIX 091720
TAFNEW
TAF
KNEW 091720Z 0918/1018 30020G28KT P6SM SKC
     FM101200 33015KT P6SM SKC=

USA.gov is the U.S. government's official web portal to all federal, state and local government web resources and services.